Wind_Speed
15 14 13 14 13 12 11 11 12 11 11 10 10 9 8 9 8 8 8 7 7 7 7 8 8 8 8 9 9 9 9 9 9 9 9 9 9 9 9 9 9 9 10 10
16 15 15 15 14 14 13 13 13 12 12 12 11 10 10 10 9 9 8 7 7 7 7 8 8 8 8 9 10 10 10 10 10 10 10 10 10 10 10 10 11 11 11 11
17 16 17 17 16 16 15 14 14 14 13 13 13 13 12 11 11 10 9 8 8 8 8 8 8 8 9 9 10 10 11 10 10 11 11 11 11 12 12 12 12 12 12 13
19 18 19 17 17 16 16 16 15 15 14 14 14 13 13 13 12 11 10 10 9 9 8 9 9 10 10 10 11 11 11 11 11 12 12 12 13 13 13 13 13 13 14 14
21 21 20 18 18 17 17 17 16 16 15 15 15 14 14 14 13 13 12 11 11 10 10 10 10 11 11 12 12 12 12 12 12 12 12 13 13 13 13 14 14 15 14 15
23 22 22 19 19 19 19 18 16 17 17 16 16 16 16 15 15 14 13 13 12 11 11 11 11 13 13 13 12 12 13 14 14 13 13 13 14 15 14 15 15 15 16 16
24 24 23 20 19 20 20 18 17 17 17 17 17 17 17 17 16 16 15 14 14 13 13 13 14 14 14 14 14 14 14 15 15 14 14 14 14 15 15 16 16 16 17 17
24 25 23 21 21 21 21 20 19 18 18 18 18 18 18 18 18 17 17 17 16 15 15 15 15 16 16 16 16 16 16 16 16 16 16 15 16 16 17 17 17 18 18 18
25 24 23 22 22 21 21 21 21 20 20 19 19 19 19 19 19 18 18 18 18 17 16 15 15 16 17 17 17 17 17 17 17 17 17 17 17 17 18 18 18 19 19 19
26 24 22 22 22 22 21 21 21 20 20 20 20 20 20 19 20 20 20 19 19 18 18 17 16 16 17 17 18 18 18 18 17 17 18 18 18 19 19 19 19 19 20 20
26 25 24 24 23 23 23 22 21 20 20 20 21 21 21 21 21 21 21 21 20 20 20 19 18 18 17 18 18 19 19 19 19 19 19 19 19 19 20 20 19 20 20 21
27 26 26 25 24 24 23 23 23 22 22 22 22 22 22 23 23 22 22 21 22 21 21 20 19 19 19 19 19 19 19 19 20 20 20 20 19 19 20 19 20 21 21 22
28 28 28 27 26 25 24 23 23 23 23 23 22 22 23 23 23 23 23 23 23 23 22 21 20 20 20 20 20 20 20 20 20 20 20 20 19 19 20 20 20 21 22 22
28 29 28 27 27 26 25 25 25 24 24 24 23 23 23 23 24 24 24 24 24 24 22 22 22 21 21 22 22 22 22 21 21 21 21 21 20 21 21 21 22 22 23 23
29 29 29 29 28 28 27 27 27 26 26 25 25 24 25 24 24 25 25 25 25 25 24 23 22 22 23 23 23 23 23 22 22 22 22 22 22 22 22 22 23 24 25 25
30 29 29 29 29 29 28 28 28 27 26 25 25 25 25 25 25 25 26 26 26 26 25 24 24 24 24 24 24 24 24 23 23 23 24 24 24 24 24 24 24 25 25 25
30 29 29 29 30 30 29 29 28 27 27 27 26 26 26 26 26 26 26 26 27 27 26 26 26 25 25 25 25 26 25 25 25 25 25 25 25 25 25 25 26 26 26 26
31 30 30 30 30 31 30 29 29 28 28 27 27 27 26 26 27 27 27 27 27 27 26 26 27 26 26 26 26 27 27 27 27 27 27 27 27 27 27 27 27 27 28 28
32 32 32 32 31 31 31 30 30 29 28 28 28 28 28 27 27 27 27 27 27 27 27 27 27 26 26 27 27 27 27 28 28 28 28 28 28 28 28 28 28 29 29 30
34 34 33 33 33 33 32 31 31 30 30 29 29 28 28 28 28 28 28 28 28 27 27 28 27 27 27 27 28 28 28 28 29 28 28 29 29 29 29 29 30 30 31 32
33 33 34 34 34 33 33 32 31 31 30 30 30 29 28 28 28 28 29 29 28 28 28 28 28 28 28 28 28 28 27 28 28 28 28 29 29 30 30 31 31 32 32 32
34 33 34 34 34 34 33 33 32 32 31 31 31 30 29 29 29 29 29 29 29 29 29 28 29 29 30 29 30 29 29 29 30 30 30 31 31 31 32 32 32 33 33 33
34 34 34 34 34 34 34 34 33 33 33 33 32 31 31 30 30 30 30 30 30 30 30 30 30 30 31 31 31 31 31 31 31 31 32 32 32 33 33 33 33 33 34 34
32 32 33 33 33 34 34 33 33 33 33 33 33 32 32 32 32 32 32 32 32 31 31 31 32 32 32 31 32 32 32 32 32 32 32 33 34 34 35 35 35 35 35 36
32 32 32 33 34 34 34 34 34 34 34 34 33 33 32 32 32 32 33 33 33 33 32 32 32 32 32 32 32 32 32 33 33 33 34 34 34 35 35 36 36 36 37 37
33 33 32 33 33 34 34 34 34 34 34 35 35 34 34 34 34 34 34 34 34 34 34 34 34 34 34 34 34 34 34 34 34 34 35 34 34 35 35 36 36 37 38 38
32 32 33 33 34 34 34 34 35 35 35 36 36 36 35 35 35 35 35 34 34 34 35 35 36 36 35 35 35 35 35 34 35 35 35 35 36 36 36 37 37 37 37 38
Wind_Direction
264 266 266 266 267 268 273 275 278 277 274 273 277 288 292 290 287 287 287 279 271 261 258 252 250 251 248 244 249 252 252 252 256 259 260 262 263 262 267 270 273 274 276 280
262 265 266 265 265 267 269 272 272 273 271 271 271 278 285 284 282 281 278 275 268 264 257 253 252 249 247 247 249 251 254 256 258 258 260 265 266 264 266 268 270 273 274 276
259 263 263 263 266 269 270 270 271 273 272 268 267 270 275 278 277 277 273 266 264 260 257 253 253 255 253 250 249 252 254 256 257 257 260 264 265 264 266 268 269 272 274 277
258 259 259 263 266 268 268 269 270 271 270 268 266 265 268 271 275 275 270 264 258 255 255 251 254 258 258 256 253 253 254 257 258 261 264 265 265 266 268 272 271 272 275 278
257 258 261 262 265 268 270 269 269 268 267 268 267 264 263 266 267 269 265 261 257 254 253 255 257 259 260 260 258 255 256 259 260 265 268 267 266 267 270 271 273 274 275 280
256 258 260 262 263 266 268 267 269 267 266 266 267 264 264 265 264 263 260 258 257 256 256 258 260 262 263 261 259 258 257 257 260 264 269 270 269 270 271 271 274 275 278 282
256 258 260 261 262 265 267 270 270 268 266 265 265 265 263 261 262 259 256 257 259 260 259 259 261 263 265 262 258 258 258 257 259 264 269 271 272 272 273 274 275 277 279 281
256 258 260 263 264 265 268 268 267 266 264 264 264 263 261 260 259 258 254 254 257 259 260 260 260 262 263 262 262 262 260 261 262 264 268 270 271 273 275 275 276 279 280 282
255 258 261 262 263 264 264 265 265 263 262 263 263 263 262 259 257 257 255 254 256 258 260 262 264 263 261 260 263 264 264 264 263 263 267 269 272 273 274 276 278 280 282 283
253 254 257 259 261 263 262 261 262 263 263 263 261 260 259 258 256 256 254 254 256 257 259 261 264 264 259 260 264 265 265 264 264 266 270 270 271 273 275 276 277 280 283 284
254 255 256 258 260 261 260 261 262 263 265 266 263 259 259 259 257 257 255 253 254 256 258 258 260 261 260 262 265 265 265 264 265 267 271 272 272 273 274 275 278 281 283 284
253 254 256 258 259 261 261 262 262 263 265 266 265 260 259 258 257 256 255 255 255 256 258 258 258 259 263 263 265 265 265 265 266 268 269 271 273 275 274 276 280 280 281 283
253 253 255 257 258 260 261 260 259 261 265 267 265 262 260 257 255 256 254 255 255 257 257 256 256 260 262 263 263 264 265 266 267 269 270 270 273 274 276 279 282 283 284 285
253 254 256 257 258 260 261 260 260 260 264 265 264 261 259 257 256 256 254 254 254 256 256 254 255 259 261 262 263 263 265 266 267 268 269 272 273 273 275 279 282 284 286 286
252 253 255 257 258 259 260 260 260 263 265 263 263 261 259 257 257 257 256 255 254 254 254 254 256 258 260 262 262 263 264 264 266 268 269 271 274 276 277 278 280 281 283 283
252 253 255 256 257 257 259 259 261 263 262 262 262 261 258 256 257 258 257 255 254 254 254 254 255 257 260 262 262 263 264 265 266 268 269 272 274 277 279 281 282 283 283 283
252 254 255 256 255 255 257 258 260 260 259 260 262 261 259 257 257 258 258 255 252 252 254 254 254 256 257 260 262 263 263 264 265 267 269 272 274 276 279 280 282 284 285 285
254 254 255 256 255 254 256 258 259 260 259 259 260 259 258 259 259 257 256 256 253 253 254 254 255 256 257 260 262 263 263 264 266 267 269 271 273 275 278 279 281 283 284 284
252 252 253 254 255 256 257 258 258 257 258 259 258 257 257 258 259 258 257 257 256 256 255 255 257 258 259 261 262 262 263 264 266 268 270 271 272 274 277 279 281 283 284 285
251 252 252 253 254 255 256 257 257 257 257 258 257 256 256 257 258 257 257 258 258 258 257 257 257 258 260 261 261 262 264 265 266 268 270 271 273 275 277 279 281 283 284 285
252 253 253 253 253 253 255 255 255 255 255 256 256 255 256 256 257 257 257 258 259 259 259 258 259 259 260 260 260 262 264 265 266 268 270 273 275 276 278 279 281 282 283 284
253 254 253 252 252 252 253 253 254 254 254 255 254 256 257 256 256 257 258 257 258 258 258 259 260 260 260 260 261 263 265 266 267 268 270 273 275 277 279 279 281 281 282 284
254 254 253 252 252 252 251 252 253 253 254 254 255 256 256 256 257 258 259 258 257 257 259 259 260 260 260 261 262 263 265 266 268 269 270 272 274 277 278 279 280 281 281 283
255 255 253 253 251 250 251 252 253 254 254 254 254 255 254 255 256 257 257 258 258 258 259 260 260 260 261 262 263 264 265 267 269 272 273 274 275 276 276 278 279 281 281 282
255 255 254 253 252 252 253 254 255 255 255 254 255 255 255 256 256 257 257 258 259 259 259 260 259 260 261 262 263 265 267 269 271 273 274 275 276 276 277 279 279 280 280 281
255 255 254 254 253 254 255 255 255 256 255 255 254 255 256 257 257 257 258 259 259 259 260 260 260 261 262 263 264 265 267 270 273 274 275 275 276 278 279 280 281 282 282 283
256 256 256 256 256 256 257 257 256 256 255 255 254 254 255 256 257 257 258 259 259 260 260 261 262 262 263 264 265 266 267 270 273 274 275 276 277 279 279 279 280 282 282 283
Height
5848 5849 5849 5849 5850 5850 5850 5850 5850 5850 5849 5849 5848 5848 5848 5847 5847 5847 5847 5847 5847 5847 5847 5847 5848 5849 5849 5850 5851 5851 5852 5852 5852 5853 5853 5853 5853 5853 5853 5852 5852 5852 5852 5851
5844 5844 5844 5845 5846 5846 5846 5846 5846 5846 5846 5846 5845 5845 5845 5845 5844 5844 5844 5844 5844 5845 5845 5845 5846 5846 5847 5848 5848 5849 5849 5849 5850 5850 5850 5850 5850 5850 5850 5850 5850 5849 5849 5849
5839 5840 5840 5840 5842 5842 5842 5842 5842 5842 5843 5842 5842 5842 5841 5841 5841 5841 5841 5841 5842 5842 5843 5843 5844 5844 5844 5845 5846 5846 5846 5847 5847 5847 5847 5847 5847 5847 5847 5847 5847 5846 5846 5845
5834 5835 5835 5839 5837 5837 5837 5837 5838 5838 5838 5838 5838 5838 5838 5838 5838 5838 5838 5838 5838 5839 5840 5841 5841 5842 5842 5842 5843 5843 5844 5844 5844 5844 5844 5844 5843 5843 5843 5843 5843 5843 5842 5842
5828 5828 5829 5832 5832 5832 5832 5833 5833 5833 5833 5833 5833 5834 5834 5834 5835 5835 5835 5835 5835 5836 5837 5837 5838 5838 5839 5839 5839 5840 5840 5841 5841 5840 5840 5840 5840 5840 5840 5840 5839 5839 5838 5837
5821 5822 5823 5828 5828 5826 5827 5827 5828 5828 5828 5829 5829 5830 5831 5830 5830 5831 5831 5832 5832 5832 5833 5834 5834 5835 5835 5836 5836 5836 5836 5837 5837 5837 5837 5836 5836 5836 5836 5835 5835 5835 5834 5833
5815 5815 5817 5821 5822 5821 5822 5824 5823 5823 5823 5823 5824 5825 5826 5825 5826 5826 5827 5827 5828 5829 5829 5830 5831 5831 5832 5832 5832 5833 5833 5833 5833 5833 5833 5832 5832 5832 5832 5831 5831 5830 5829 5828
5808 5809 5814 5815 5815 5816 5816 5816 5817 5817 5817 5818 5818 5819 5820 5820 5821 5821 5822 5823 5823 5824 5824 5825 5826 5827 5827 5827 5828 5828 5828 5828 5828 5828 5828 5828 5828 5828 5827 5826 5826 5825 5824 5823
5803 5806 5807 5807 5808 5808 5809 5809 5810 5810 5811 5811 5812 5813 5814 5814 5815 5816 5817 5817 5818 5819 5820 5820 5821 5821 5822 5822 5823 5823 5823 5823 5823 5823 5823 5823 5823 5823 5822 5821 5821 5820 5819 5818
5795 5797 5799 5800 5800 5801 5802 5803 5803 5803 5804 5805 5805 5806 5807 5808 5809 5810 5811 5812 5813 5814 5814 5815 5815 5816 5816 5817 5817 5818 5818 5818 5818 5818 5818 5818 5818 5817 5817 5816 5815 5814 5813 5812
5787 5790 5792 5793 5793 5794 5795 5796 5796 5797 5797 5798 5798 5799 5800 5801 5802 5803 5804 5806 5807 5808 5808 5809 5810 5810 5811 5811 5812 5812 5812 5812 5812 5812 5812 5812 5812 5811 5811 5810 5810 5809 5808 5806
5780 5783 5784 5786 5786 5787 5788 5789 5790 5790 5791 5791 5791 5792 5793 5794 5795 5796 5798 5799 5800 5801 5802 5803 5804 5804 5804 5805 5805 5806 5806 5806 5806 5806 5806 5806 5805 5805 5804 5804 5803 5802 5801 5800
5772 5774 5776 5777 5778 5779 5781 5782 5783 5783 5784 5784 5784 5785 5786 5787 5788 5789 5790 5792 5793 5794 5795 5796 5797 5798 5798 5798 5799 5799 5800 5800 5800 5800 5800 5800 5799 5799 5798 5798 5797 5796 5795 5793
5764 5765 5767 5769 5770 5772 5773 5774 5775 5776 5776 5776 5777 5777 5778 5779 5780 5782 5783 5784 5785 5787 5787 5788 5789 5790 5791 5792 5792 5793 5793 5793 5794 5793 5793 5793 5793 5792 5792 5791 5790 5789 5788 5786
5755 5757 5759 5761 5762 5763 5765 5766 5767 5768 5768 5768 5769 5769 5770 5772 5773 5774 5775 5776 5778 5779 5780 5781 5782 5783 5784 5785 5785 5786 5786 5787 5787 5787 5786 5786 5786 5785 5785 5784 5783 5782 5780 5779
5747 5749 5750 5752 5753 5755 5756 5757 5758 5759 5759 5760 5761 5761 5763 5764 5765 5767 5768 5769 5770 5771 5772 5773 5775 5776 5776 5777 5778 5778 5779 5779 5780 5780 5779 5779 5779 5778 5777 5776 5775 5774 5773 5771
5738 5740 5742 5744 5745 5746 5748 5749 5749 5750 5751 5752 5753 5753 5755 5756 5757 5759 5760 5761 5762 5763 5764 5766 5767 5768 5769 5769 5770 5771 5771 5772 5772 5772 5772 5772 5771 5771 5770 5769 5768 5766 5765 5763
5729 5732 5733 5735 5736 5737 5739 5740 5741 5741 5742 5743 5744 5745 5747 5748 5749 5750 5751 5752 5753 5755 5756 5757 5759 5759 5760 5761 5762 5763 5763 5763 5764 5764 5763 5763 5763 5762 5761 5760 5759 5758 5756 5755
5720 5722 5724 5725 5726 5728 5729 5731 5732 5733 5734 5734 5736 5737 5738 5740 5741 5742 5743 5744 5745 5746 5748 5749 5750 5751 5752 5753 5753 5754 5754 5755 5755 5755 5755 5754 5754 5753 5752 5751 5750 5749 5748 5746
5710 5712 5713 5715 5717 5718 5719 5721 5722 5724 5725 5726 5727 5728 5730 5731 5732 5733 5735 5736 5737 5738 5739 5740 5741 5742 5743 5744 5744 5745 5746 5746 5746 5746 5746 5745 5745 5744 5743 5743 5742 5740 5738 5737
5700 5702 5703 5705 5706 5708 5709 5711 5712 5714 5715 5716 5718 5719 5721 5722 5723 5724 5725 5727 5728 5729 5730 5731 5732 5733 5734 5734 5735 5736 5736 5737 5737 5737 5737 5736 5736 5735 5734 5733 5732 5730 5729 5727
5690 5691 5693 5695 5696 5698 5699 5701 5702 5704 5705 5707 5708 5710 5711 5713 5714 5715 5716 5718 5719 5719 5720 5721 5722 5723 5724 5725 5725 5726 5727 5727 5727 5727 5727 5727 5726 5725 5724 5723 5722 5720 5719 5717
5679 5681 5682 5684 5686 5687 5689 5691 5692 5694 5695 5697 5698 5700 5701 5703 5704 5706 5707 5708 5709 5710 5711 5712 5713 5713 5714 5715 5715 5716 5717 5717 5717 5717 5717 5717 5716 5715 5714 5713 5711 5710 5708 5707
5669 5670 5672 5673 5675 5677 5679 5680 5682 5683 5685 5686 5688 5690 5691 5693 5694 5695 5696 5698 5699 5700 5701 5702 5703 5703 5704 5705 5705 5706 5707 5707 5707 5707 5706 5706 5705 5704 5703 5702 5701 5699 5698 5696
5659 5660 5661 5663 5664 5666 5668 5669 5671 5673 5674 5676 5678 5679 5680 5682 5683 5685 5686 5687 5688 5689 5690 5691 5692 5693 5694 5694 5695 5696 5696 5696 5696 5696 5696 5695 5694 5693 5692 5691 5690 5688 5686 5684
5648 5650 5651 5652 5654 5656 5657 5659 5660 5662 5663 5665 5667 5668 5670 5671 5672 5674 5675 5676 5677 5678 5679 5680 5681 5682 5683 5683 5684 5685 5685 5685 5685 5685 5684 5683 5683 5682 5681 5679 5678 5676 5675 5673
5638 5639 5640 5642 5643 5645 5646 5647 5649 5650 5652 5654 5655 5657 5658 5660 5661 5662 5663 5664 5666 5667 5668 5669 5670 5670 5671 5672 5672 5673 5673 5674 5674 5673 5673 5672 5671 5670 5669 5667 5666 5664 5663 5661